DateTimeUTC,F1_A11,F1_S11,BsB_S11,BsG_S11,BsR_S11,BbsB_S11,BbsG_S11,BbsR_S11,BaB_A11,BaG_A11,BaR_A11,Tu_S11,T_S11,Uu_S11,U_S11,P_S11,T1_A11
2021-03-20T19:00:00Z,00000200,21000000,,,,,,,-000.23,0000.08,0000.20,17.3,24.5,,00.0,0642.3,31.0
2021-03-20T19:01:00Z,00000200,21000000,,,,,,,-000.11,-000.16,-000.33,17.3,24.5,,00.0,0642.3,31.0
2021-03-20T19:02:00Z,00000200,21000000,,,,,,,-000.17,-000.24,-000.33,17.3,24.6,,00.0,0642.3,31.0
2021-03-20T19:03:00Z,00000200,61000000,,,,,,,0000.58,0000.22,0000.68,17.3,24.6,,00.0,0642.3,31.0
2021-03-20T19:04:00Z,00000200,41000000,0002.07,0001.10,0000.44,0000.27,0000.05,0000.02,0000.26,0000.88,-000.07,17.4,24.4,,00.0,0643.1,31.0
2021-03-20T19:05:00Z,00000200,01000000,0001.59,0000.66,0000.28,0000.39,0000.20,0000.20,0000.73,0000.27,0000.81,17.4,24.3,,00.0,0643.2,31.0
2021-03-20T19:06:00Z,00000200,01000000,0000.87,0000.93,0000.49,-000.25,0000.22,-000.21,0001.16,0000.91,0000.48,17.4,24.3,,00.0,0643.2,31.0
2021-03-20T19:07:00Z,00000200,01000000,0001.26,0000.84,0000.59,0000.11,0000.15,0000.14,-000.23,-000.32,-000.33,17.3,24.3,,00.0,0643.2,31.0
2021-03-20T19:08:00Z,00000200,01000000,0001.82,0000.79,0000.68,-000.09,0000.14,0000.16,0000.65,0000.64,0000.53,17.3,24.2,,00.0,0643.2,31.0
2021-03-20T19:09:00Z,00000200,01000000,0001.26,0000.83,0000.70,0000.08,0000.38,0000.37,0000.19,0000.19,0000.11,17.3,24.2,,00.0,0643.2,31.0
2021-03-20T19:10:00Z,00000200,01000000,0000.86,0000.74,0000.49,-000.36,0000.14,0000.37,0000.42,0000.27,0000.30,17.3,24.2,,00.0,0643.2,31.0
2021-03-20T19:11:00Z,00000200,01000000,0000.89,0000.92,0000.29,0000.07,0000.25,0000.01,0000.36,0000.16,0000.29,17.2,24.2,,00.0,0643.2,31.0
2021-03-20T19:12:00Z,00000200,01000000,0001.04,0000.81,0000.54,-000.24,0000.13,0000.06,0000.20,0000.58,0000.20,17.2,24.2,,00.0,0643.2,31.0
2021-03-20T19:13:00Z,00000200,01000000,0001.13,0000.69,0000.47,0000.14,0000.09,0000.19,0000.49,0000.28,0000.63,17.2,24.1,,00.0,0643.2,31.0
2021-03-20T19:14:00Z,00000200,01000000,0001.37,0000.67,0000.51,0000.04,0000.37,0000.38,0000.38,0000.39,-000.05,17.2,24.1,,00.0,0643.2,31.0
2021-03-20T19:15:00Z,00000200,01000000,0001.78,0000.83,0000.53,-000.11,0000.31,0000.22,0000.67,0000.73,0000.48,17.1,24.1,,00.0,0643.2,31.0
2021-03-20T19:16:00Z,00000200,01000000,0000.87,0000.55,0000.35,0000.20,0000.31,-000.03,0000.26,0000.31,0000.24,17.1,24.1,,00.0,0643.2,31.0
2021-03-20T19:17:00Z,00000200,01000000,0001.28,0000.98,0000.63,0000.37,0000.13,0000.27,0000.62,0000.47,0000.04,17.1,24.1,,00.0,0643.2,31.0
2021-03-20T19:18:00Z,00000200,01000000,0001.11,0001.07,0000.47,-000.17,0000.01,0000.06,0000.12,0000.36,0000.95,17.0,24.1,,00.0,0643.2,31.0
2021-03-20T19:19:00Z,00000200,01000000,0001.26,0000.72,0000.51,0000.46,0000.14,0000.38,0000.67,0000.06,-000.38,17.0,24.0,,00.0,0643.2,31.0
2021-03-20T19:20:00Z,00000200,01000000,0001.03,0000.60,0000.58,0000.06,0000.15,0000.12,0000.63,0000.52,0000.79,17.0,24.0,,00.0,0643.2,30.9
2021-03-20T19:21:00Z,00000200,01000000,0001.23,0000.90,0000.66,-000.27,0000.09,0000.26,0000.17,0000.60,0000.32,17.0,24.0,,00.0,0643.2,30.9
2021-03-20T19:22:00Z,00000200,01000000,0001.34,0000.54,0000.51,-000.58,0000.25,-000.00,0001.01,0001.03,0000.57,17.1,24.0,,00.0,0643.2,31.0
2021-03-20T19:23:00Z,00000200,01000000,0001.41,0000.56,0000.56,0000.45,0000.22,0000.06,0000.25,-000.15,0000.22,17.1,24.0,,00.0,0643.2,31.0
2021-03-20T19:24:00Z,00000200,01000000,0001.28,0000.75,0000.67,-000.48,0000.23,-000.05,0000.51,0000.51,0000.08,17.2,24.0,,00.0,0643.2,31.0
2021-03-20T19:25:00Z,00000200,01000000,0001.55,0000.79,0000.33,0000.23,0000.29,-000.21,0000.36,0000.70,0000.15,17.2,24.1,,00.0,0643.2,31.0
2021-03-20T19:26:00Z,00000200,01000000,0001.28,0001.06,0000.65,-000.22,0000.12,0000.35,0000.45,0000.09,0000.36,17.3,24.1,,00.0,0643.2,31.0
2021-03-20T19:27:00Z,00000200,01000000,0001.43,0000.69,0000.48,-000.30,0000.06,0000.01,0000.04,0000.19,0000.07,17.4,24.1,,00.0,0643.2,31.0
2021-03-20T19:28:00Z,00000200,01000000,0001.63,0000.76,0000.33,0000.03,0000.20,0000.19,0000.79,0000.62,0000.49,17.3,24.1,,00.0,0643.2,31.0
2021-03-20T19:29:00Z,00000200,01000000,0000.77,0000.59,0000.77,-000.39,0000.20,0000.40,0000.14,0000.20,0000.16,17.3,24.1,,00.0,0643.2,31.0
2021-03-20T19:30:00Z,00000200,01000000,0001.53,0000.93,0000.35,-000.14,0000.05,0000.29,0000.43,0000.10,0000.13,17.3,24.1,,00.0,0643.2,31.0
2021-03-20T19:31:00Z,00000200,01000000,0000.81,0000.85,0000.57,0000.04,0000.39,0000.19,0000.42,0000.46,0000.31,17.2,24.1,,00.0,0643.2,31.0
2021-03-20T19:32:00Z,00000200,01000000,0001.24,0000.80,0000.38,0000.18,0000.33,-000.03,0000.58,0000.49,0000.34,17.2,24.1,,00.0,0643.2,31.0
2021-03-20T19:33:00Z,00000200,01000000,0001.77,0000.88,0000.51,-000.06,0000.06,0000.03,0000.66,0000.70,0000.46,17.1,24.0,,00.0,0643.2,31.0
2021-03-20T19:34:00Z,00000200,01000000,0001.50,0000.76,0000.33,0000.24,0000.20,0000.16,0000.42,0000.48,0000.37,17.1,24.0,,00.0,0643.1,31.0
2021-03-20T19:35:00Z,00000200,01000000,0001.53,0001.06,0000.25,-000.14,0000.33,0000.06,0000.65,0000.43,0000.19,17.1,24.0,,00.0,0643.1,30.9
2021-03-20T19:36:00Z,00000200,01000000,0001.84,0000.96,0000.49,-000.07,0000.38,0000.00,0000.71,0000.84,0000.59,17.1,24.0,,00.0,0643.2,31.0
2021-03-20T19:37:00Z,00000200,01000000,0001.16,0000.52,0000.25,-000.52,0000.17,0000.03,0000.22,-000.03,0000.52,17.2,24.0,,00.0,0643.1,31.0
2021-03-20T19:38:00Z,00000200,01000000,0001.30,0000.66,0000.73,0000.05,0000.06,0000.25,0000.51,0000.78,0000.17,17.2,24.0,,00.0,0643.1,31.0
2021-03-20T19:39:00Z,00000200,01000000,0000.85,0000.84,0000.67,-000.36,0000.15,0000.03,0000.85,0000.36,0000.56,17.3,24.1,,00.0,0643.1,31.0
2021-03-20T19:40:00Z,00000200,01000000,0001.57,0000.73,0000.79,0000.18,0000.33,0000.20,0002.70,0002.69,0001.63,17.4,24.1,,00.0,0643.2,31.0
2021-03-20T19:41:00Z,00000200,01000000,0001.30,0000.91,0000.63,-000.06,-000.03,0000.29,-000.46,-000.44,-000.09,17.4,24.2,,00.0,0643.2,31.0
2021-03-20T19:42:00Z,00000200,01000000,0000.89,0000.89,0000.31,-000.13,0000.02,0000.19,0000.36,0000.37,0000.04,17.5,24.2,,00.0,0643.2,31.0
2021-03-20T19:43:00Z,00000200,01000000,0001.47,0000.85,0000.31,-000.08,-000.02,0000.11,0000.48,0000.00,0000.20,17.6,24.2,,00.0,0643.2,31.0
2021-03-20T19:44:00Z,00000200,01000000,0002.28,0000.92,0000.46,-000.24,0000.08,0000.12,0000.38,0000.94,0000.67,17.6,24.3,,00.0,0643.2,31.0
2021-03-20T19:45:00Z,00000200,01000000,0001.50,0000.73,0000.24,-000.45,0000.32,0000.01,0000.33,-000.05,-000.03,17.7,24.3,,00.0,0643.3,31.0
2021-03-20T19:46:00Z,00000200,01000000,0001.41,0000.83,0000.71,-000.29,0000.23,0000.22,0000.35,0000.49,0000.34,17.7,24.4,,00.0,0643.2,31.0
2021-03-20T19:47:00Z,00000200,01000000,0001.68,0000.88,0000.61,0000.02,-000.01,0000.32,0000.93,0000.72,0000.28,17.8,24.4,,00.0,0643.3,31.0
2021-03-20T19:48:00Z,00000200,01000000,0001.66,0000.62,0000.57,0000.50,0000.01,0000.26,-000.28,0000.17,0000.30,17.9,24.4,,00.0,0643.2,31.1
2021-03-20T19:49:00Z,00000200,01000000,0001.38,0000.83,0000.65,-000.33,0000.25,0000.06,0000.78,0000.14,0000.24,17.9,24.4,,00.0,0643.3,31.1
2021-03-20T19:50:00Z,00000200,01000000,0001.34,0000.63,0000.53,0000.05,0000.16,0000.04,0000.40,0000.09,0000.06,17.9,24.4,,00.0,0643.3,31.1
2021-03-20T19:51:00Z,00000200,01000000,0001.51,0000.61,0000.39,0000.66,0000.28,-000.11,0000.01,0000.49,0000.22,17.8,24.4,,00.0,0643.3,31.0
2021-03-20T19:52:00Z,00000200,01000000,0001.73,0000.79,0000.59,-000.67,-000.05,0000.03,0000.37,0000.12,-000.10,17.8,24.4,,00.0,0643.2,31.0
2021-03-20T19:53:00Z,00000200,01000000,0001.21,0001.01,0000.47,-000.56,0000.09,0000.16,0000.70,0000.91,0000.44,17.7,24.4,,00.0,0643.3,31.0
2021-03-20T19:54:00Z,00000200,01000000,0001.42,0001.02,0000.59,-000.11,0000.14,0000.29,-000.08,-000.30,0000.31,17.7,24.4,,00.0,0643.2,31.0
2021-03-20T19:55:00Z,00000200,01000000,0002.43,0000.78,0000.44,0000.01,0000.25,0000.22,0000.65,0000.14,-000.05,17.6,24.4,,00.0,0643.2,31.0
2021-03-20T19:56:00Z,00000200,01000000,0001.02,0000.77,0000.25,-000.01,0000.19,-000.13,0000.16,0000.45,0000.19,17.6,24.4,,00.0,0643.2,31.0
2021-03-20T19:57:00Z,00000200,41000000,,,,,,,0000.16,0000.07,0000.14,17.6,24.4,,00.0,0643.0,31.0
2021-03-20T19:58:00Z,00000200,61000000,,,,,,,-000.08,-000.17,0000.11,17.2,24.5,,00.0,0642.2,31.0
2021-03-20T19:59:00Z,00000200,21000000,,,,,,,-000.29,0000.07,-000.06,17.2,24.6,,00.0,0642.2,31.0
